Beaufort, NC

10:23 PM EST on December 10, 2019 (GMT -0500)
Smith

Weather History for KMRH - October, 2019

Change the Weather History Date:

Thursday, October 24, 2019

  Actual Average Record
Temperature  
Mean Temperature 64 °F -  
Max Temperature 73 °F 73 °F 83 °F (1985)
Min Temperature 54 °F 53 °F 37 °F (2006)
Degree Days  
Heating Degree Days 2    
Growing Degree Days 14 (Base 50)    
Moisture  
Dew Point 56 °F    
Average Humidity 78    
Maximum Humidity 97    
Minimum Humidity 51    
Precipitation  
Precipitation 0.00 in - - ()
Sea Level Pressure  
Sea Level Pressure 30.28 in    
Wind  
Wind Speed 5 mph (NE)    
Max Wind Speed 12 mph    
Max Gust Speed -    
Visibility 10 miles    
Events      
Averages and records for this station are not official NWS values.
T = Trace of Precipitation, MM = Missing Value Source: NWS Daily Summary

Daily Weather History Graph

Daily Weather History Graph

Search for Another Location

Airport or City:

Astronomy

Oct. 24, 2019 Rise Set
Actual Time 7:19 AM EDT 6:21 PM EDT
Civil Twilight 6:54 AM EDT 6:47 PM EDT
Nautical Twilight 6:24 AM EDT 7:16 PM EDT
Astronomical Twilight 5:55 AM EDT 7:45 PM EDT
Moon 3:02 AM EDT (10/24) 4:34 PM EDT (10/24)
Length of Visible Light 11h 53m
Length of Day
11h 01m
Waning Crescent, 17% of the Moon is Illuminated
Oct 24
Waning Crescent
Oct 27
New
Nov 4
First Quarter
Nov 12
Full
Nov 19
Last Quarter

Hourly Weather History & Observations

Time (EDT) Temp. Dew Point Humidity Pressure Visibility Wind Dir Wind Speed Gust Speed Precip Events Conditions
12:58 AM 57.0 °F 55.0 °F 93% 30.22 in 10.0 mi Calm Calm - N/A   Clear
1:58 AM 54.0 °F 53.1 °F 97% 30.23 in 10.0 mi Calm Calm - N/A   Clear
2:58 AM 55.0 °F 53.1 °F 93% 30.22 in 10.0 mi NE 3.5 mph - N/A   Clear
3:58 AM 54.0 °F 52.0 °F 93% 30.23 in 10.0 mi NNE 4.6 mph - N/A   Clear
4:58 AM 59.0 °F 55.9 °F 90% 30.25 in 10.0 mi NNE 5.8 mph - N/A   Clear
5:58 AM 57.9 °F 57.0 °F 97% 30.27 in 10.0 mi NNE 6.9 mph - N/A   Clear
6:58 AM 59.0 °F 57.9 °F 96% 30.27 in 10.0 mi NNE 5.8 mph - N/A   Clear
7:58 AM 60.1 °F 57.0 °F 90% 30.30 in 10.0 mi NNE 5.8 mph - N/A   Clear
8:58 AM 62.1 °F 57.9 °F 86% 30.31 in 10.0 mi NNE 5.8 mph - N/A   Clear
9:58 AM 66.9 °F 57.0 °F 70% 30.31 in 10.0 mi NE 8.1 mph - N/A   Clear
10:58 AM 70.0 °F 53.1 °F 55% 30.31 in 10.0 mi ENE 9.2 mph - N/A   Clear
11:58 AM 72.0 °F 54.0 °F 53% 30.31 in 10.0 mi East 9.2 mph - N/A   Clear
12:58 PM 73.0 °F 54.0 °F 51% 30.29 in 10.0 mi East 9.2 mph - N/A   Clear
1:58 PM 73.0 °F 54.0 °F 51% 30.27 in 10.0 mi ENE 8.1 mph - N/A   Clear
2:58 PM 73.0 °F 55.0 °F 53% 30.26 in 10.0 mi East 11.5 mph - N/A   Clear
3:58 PM 72.0 °F 55.9 °F 57% 30.26 in 10.0 mi East 10.4 mph - N/A   Clear
4:58 PM 71.1 °F 57.0 °F 61% 30.27 in 10.0 mi ENE 8.1 mph - N/A   Clear
5:58 PM 68.0 °F 57.9 °F 70% 30.27 in 10.0 mi ENE 6.9 mph - N/A   Clear
6:58 PM 64.9 °F 57.9 °F 78% 30.27 in 10.0 mi NE 4.6 mph - N/A   Clear
7:58 PM 64.0 °F 57.9 °F 80% 30.29 in 10.0 mi NE 5.8 mph - N/A   Partly Cloudy
8:58 PM 64.0 °F 59.0 °F 84% 30.29 in 10.0 mi ENE 4.6 mph - N/A   Clear
9:58 PM 64.0 °F 60.1 °F 87% 30.31 in 10.0 mi NE 5.8 mph - N/A   Clear
10:58 PM 63.0 °F 60.1 °F 90% 30.31 in 10.0 mi NE 3.5 mph - N/A   Clear
11:58 PM 63.0 °F 60.1 °F 90% 30.30 in 10.0 mi NE 3.5 mph - N/A   Scattered Clouds